Wind_Speed
9 10 11 13 13 13 13 13 13 12 11 12 12 11 11 13 16 16 15 16 13 13 7 2 4 5 5 9 6 7 7 12 11 8 6 5 2 8 9 9 9 7 4 4 1
8 10 11 12 13 14 14 14 14 14 13 13 12 12 11 12 16 16 19 18 15 14 9 3 3 4 4 7 2 5 5 6 6 7 7 5 4 8 8 10 10 9 4 5 2
7 8 10 12 14 14 14 14 14 15 15 15 14 14 13 12 13 15 19 19 17 15 11 5 3 3 1 1 6 4 3 3 4 5 6 6 7 10 11 6 5 4 4 5 3
6 7 8 10 12 14 15 15 14 13 14 15 15 15 14 13 6 19 20 20 19 18 14 9 4 2 4 2 6 1 2 3 4 10 9 8 7 8 10 8 8 6 5 4 3
6 7 7 9 10 12 15 16 15 13 13 12 13 13 15 16 14 18 22 21 19 20 15 12 5 5 6 4 5 4 3 3 4 8 10 9 10 9 10 12 13 6 4 2 2
7 7 7 7 9 10 12 15 16 15 13 12 12 12 14 15 20 19 23 21 19 16 15 15 8 9 6 5 6 9 7 7 7 7 12 12 11 15 11 11 13 8 4 3 1
8 7 7 7 7 9 10 13 15 16 14 13 11 11 13 14 20 19 22 22 19 15 12 15 11 7 8 5 10 8 9 6 7 10 12 15 13 6 8 11 15 13 5 3 3
9 7 6 6 6 7 8 10 14 15 15 14 12 11 11 17 23 21 23 21 19 16 15 15 13 10 9 9 5 6 7 5 5 7 10 10 8 12 14 14 12 12 7 4 5
9 8 6 6 5 5 7 9 11 13 13 13 13 12 8 19 23 22 21 16 18 15 14 14 15 10 8 6 7 4 3 4 2 8 9 7 7 13 16 16 15 11 9 6 6
9 9 7 5 4 5 6 7 9 11 12 12 11 9 12 15 25 20 20 20 14 16 15 13 14 11 10 8 6 3 5 5 5 8 9 7 10 10 13 14 8 8 9 8 6
9 8 7 6 5 5 7 8 9 9 12 15 14 10 12 16 22 18 18 19 17 14 14 14 15 18 8 8 10 8 7 7 4 7 9 9 10 12 14 11 4 6 6 6 8
9 8 8 7 6 6 9 9 9 10 11 10 15 9 15 18 22 19 18 15 15 15 17 11 16 12 9 11 8 9 9 8 6 8 9 11 13 16 14 8 2 5 6 5 4
8 7 8 9 7 8 12 12 10 8 11 9 12 13 14 16 14 17 19 15 14 16 15 15 11 13 8 8 8 11 10 7 6 8 12 14 10 11 7 5 2 3 4 4 4
8 7 9 10 10 11 14 11 7 9 7 11 11 11 13 13 10 16 16 15 13 14 14 15 13 8 9 10 9 13 5 6 5 8 9 12 4 7 5 3 2 3 6 4 6
7 7 10 12 12 12 13 8 6 11 6 12 14 14 15 10 10 15 18 16 12 14 15 14 13 15 11 11 8 7 4 6 7 11 8 2 8 5 7 5 1 4 5 6 4
7 7 11 14 14 12 12 9 7 2 4 10 14 15 15 9 10 15 17 14 12 11 14 12 16 13 13 10 9 9 7 9 10 11 16 4 5 13 5 4 1 4 2 3 5
6 7 11 15 15 14 12 10 4 5 10 9 15 16 14 12 12 16 18 16 12 13 15 16 17 15 16 12 12 10 11 14 11 11 1 2 6 7 4 6 8 7 5 6 4
5 7 12 15 16 15 13 12 6 5 7 11 13 15 17 15 11 15 17 17 18 14 14 17 18 18 14 17 13 15 15 11 5 5 4 3 5 3 7 6 10 10 3 4 4
4 8 12 15 16 17 16 10 4 9 7 11 13 16 16 17 12 15 15 16 17 17 9 14 5 12 15 11 11 10 13 8 7 6 11 3 2 3 4 6 8 9 8 4 5
3 8 13 16 18 18 13 9 6 9 6 10 11 14 17 21 14 15 14 14 18 19 12 6 6 6 7 11 13 10 7 11 10 3 6 5 5 4 1 7 6 5 5 3 4
3 5 15 18 19 19 13 10 12 6 9 7 11 12 14 22 16 16 12 8 16 17 14 10 4 8 8 8 10 11 11 8 9 8 9 5 8 4 3 6 4 3 1 1 2
2 1 14 18 18 14 15 11 14 6 6 8 12 11 14 19 18 14 12 6 14 14 18 14 7 8 6 6 9 6 6 8 11 5 6 12 10 5 5 7 8 5 4 3 1
6 4 10 18 12 12 13 14 17 8 5 6 8 13 14 19 18 16 13 11 9 13 14 16 10 11 9 7 8 6 6 8 10 11 13 10 8 4 14 13 9 8 5 5 4
7 3 9 14 15 12 10 12 13 11 10 12 11 11 15 17 17 15 13 11 12 10 13 16 10 14 2 1 1 5 8 9 12 16 16 15 14 8 11 11 11 11 6 5 4
10 7 9 8 12 12 13 10 12 7 12 14 15 13 18 17 17 12 14 12 16 14 11 11 10 8 5 2 3 4 6 8 10 12 14 14 10 9 10 9 8 10 7 6 5
12 9 11 9 13 14 13 10 12 9 10 9 12 15 17 14 18 17 13 12 13 17 13 13 8 8 7 7 6 10 11 13 12 12 12 11 11 13 10 9 8 9 8 8 4
12 12 12 9 10 9 13 10 10 11 11 11 10 10 14 18 21 15 15 17 15 13 12 11 10 9 13 7 9 15 12 10 12 11 10 10 3 10 9 7 5 6 7 6 4
Wind_Direction
247 242 237 235 234 233 229 227 223 219 215 215 216 212 205 201 196 190 187 198 201 191 187 150 78 83 75 43 81 105 66 73 72 66 65 55 61 33 35 29 20 13 344 314 237
256 249 244 240 236 232 230 230 230 226 223 220 218 217 214 206 201 195 198 199 202 200 194 173 60 52 38 45 96 122 86 78 38 60 61 27 15 3 18 21 14 1 6 350 239
272 258 250 244 240 235 230 228 229 228 226 228 226 221 217 211 204 213 198 199 203 204 202 201 134 76 170 8 107 125 99 353 7 346 338 343 350 350 10 359 348 319 348 353 309
285 273 259 250 244 237 231 228 226 227 227 228 229 227 219 207 188 209 197 197 201 203 205 199 165 181 193 215 166 141 300 302 331 325 326 325 323 335 334 333 343 321 312 7 360
286 281 273 259 247 239 230 225 223 223 224 222 223 221 218 210 202 196 194 194 199 201 205 196 185 190 211 203 205 239 259 289 292 311 315 330 330 316 321 332 339 308 285 318 26
281 279 280 271 255 242 233 223 220 220 220 217 217 215 214 206 203 193 193 194 197 198 203 198 198 207 215 200 211 243 266 288 284 295 297 303 302 317 313 321 324 317 274 248 315
283 274 275 274 258 242 234 222 217 218 218 216 215 214 213 198 196 191 192 196 197 195 196 201 195 196 220 227 236 262 299 290 293 293 289 299 300 332 326 327 330 320 285 260 252
286 270 268 270 263 241 228 218 213 214 215 216 214 214 210 198 190 189 192 197 200 201 199 197 200 211 203 222 267 285 296 305 298 296 299 289 295 308 319 324 331 320 300 265 257
287 269 257 260 258 236 218 210 208 208 208 209 210 208 204 198 189 193 193 192 203 205 204 200 203 218 207 211 235 248 296 311 324 307 319 315 306 296 306 317 316 306 302 288 252
289 269 251 243 240 220 200 192 193 195 196 195 195 185 203 192 192 190 196 196 198 204 206 203 208 217 216 223 258 277 292 308 303 316 345 320 307 295 311 321 318 308 304 293 256
291 267 245 223 217 199 182 175 173 184 185 181 182 187 192 193 184 192 196 196 197 193 197 209 211 211 223 241 254 283 295 289 301 337 350 325 305 288 314 323 331 324 309 280 269
292 262 236 211 199 182 167 162 158 164 173 180 175 181 172 180 183 196 193 183 192 194 199 212 213 213 237 263 239 270 274 265 272 338 335 306 306 303 311 308 325 328 310 314 290
293 256 227 205 186 172 160 147 140 156 150 170 169 169 167 175 183 199 190 191 193 198 202 201 204 222 236 225 238 247 260 284 273 318 313 319 287 354 6 333 329 337 310 312 300
291 250 218 202 185 168 160 148 135 142 139 174 166 169 163 161 179 195 186 185 196 202 207 210 225 215 214 218 240 261 227 274 288 292 327 316 342 47 22 356 320 318 300 311 310
289 243 211 199 186 174 175 175 150 143 176 167 176 169 163 151 201 190 188 192 203 207 196 210 226 207 213 223 232 272 270 255 267 270 289 219 275 61 32 15 261 305 295 293 307
283 234 207 199 190 176 178 174 161 178 139 163 177 176 172 177 174 187 172 171 188 198 207 212 202 201 212 228 227 247 260 256 258 262 248 100 315 104 33 5 135 310 312 323 326
276 224 204 198 193 180 176 166 169 251 167 178 177 177 174 180 177 176 181 189 188 192 205 208 211 217 222 239 242 241 239 240 218 210 61 73 271 23 11 336 342 1 247 12 9
268 217 203 198 194 183 174 162 222 164 160 163 169 175 184 179 182 180 194 201 201 202 199 199 205 219 239 234 246 226 244 260 224 230 137 169 264 43 307 339 349 6 330 323 29
256 211 202 197 192 184 172 191 170 155 156 167 161 173 184 186 184 186 198 204 206 192 204 189 194 192 234 222 204 201 215 245 271 230 258 78 291 277 256 323 331 356 12 67 50
266 214 201 194 190 185 182 198 165 160 155 171 181 186 192 188 185 189 195 211 200 200 185 202 169 177 192 177 186 207 168 208 216 263 274 104 288 350 293 290 309 338 20 36 25
283 215 199 191 188 189 194 200 172 173 168 176 197 194 194 186 188 190 190 186 187 202 200 193 220 156 158 199 176 202 223 250 293 294 315 278 71 40 260 272 238 271 143 339 22
159 238 196 187 183 198 213 202 180 182 190 204 204 188 193 190 192 188 187 166 187 194 201 195 210 191 153 229 221 226 258 256 266 190 246 299 295 342 283 322 278 232 215 224 242
199 235 191 188 191 214 224 206 199 198 244 224 212 199 195 196 195 194 189 204 213 199 195 196 209 180 181 192 211 223 246 255 268 277 279 292 310 323 305 293 280 236 219 212 219
183 157 188 198 204 196 221 217 219 229 220 220 206 198 192 186 194 202 211 222 209 181 198 193 222 239 332 338 323 232 247 260 268 277 288 274 288 281 298 300 254 233 219 200 217
195 202 191 213 209 200 205 206 206 217 216 215 209 191 183 185 195 198 192 213 193 176 174 183 214 219 244 170 161 219 269 275 273 271 275 290 289 287 294 288 235 228 220 199 196
206 199 194 204 199 209 215 202 202 216 210 212 202 198 191 204 200 205 201 193 195 193 195 198 201 184 201 209 239 270 282 280 276 267 264 268 268 266 275 277 242 214 210 205 234
203 203 192 211 205 212 211 200 181 183 191 173 151 156 166 204 197 185 180 192 189 176 186 193 195 205 254 210 264 274 271 287 274 255 251 262 246 271 279 265 218 207 210 219 272
Height
3173 3174 3175 3175 3176 3177 3179 3180 3182 3183 3184 3185 3186 3188 3189 3191 3193 3195 3198 3198 3200 3203 3205 3205 3206 3206 3207 3208 3208 3207 3208 3207 3207 3207 3208 3205 3204 3202 3201 3200 3199 3199 3198 3197 3196
3171 3171 3172 3173 3174 3175 3176 3178 3179 3180 3182 3183 3185 3186 3188 3189 3191 3194 3196 3198 3199 3202 3204 3206 3207 3208 3209 3210 3209 3210 3209 3209 3209 3209 3208 3206 3204 3203 3203 3202 3201 3199 3198 3197 3196
3169 3169 3170 3170 3171 3172 3174 3175 3176 3178 3179 3181 3183 3185 3186 3188 3191 3193 3194 3197 3199 3202 3204 3206 3208 3209 3212 3212 3211 3210 3211 3210 3209 3208 3207 3207 3206 3204 3204 3204 3203 3201 3199 3198 3197
3168 3167 3167 3167 3168 3169 3171 3173 3174 3176 3177 3179 3180 3182 3184 3187 3194 3190 3193 3196 3198 3201 3204 3207 3209 3212 3212 3213 3212 3212 3211 3210 3209 3207 3206 3207 3207 3206 3204 3205 3203 3202 3200 3198 3197
3166 3165 3165 3165 3166 3167 3168 3170 3172 3174 3175 3177 3178 3180 3182 3185 3187 3188 3191 3195 3198 3201 3204 3207 3210 3211 3212 3212 3212 3212 3212 3211 3210 3208 3206 3206 3206 3206 3204 3203 3202 3202 3200 3199 3198
3164 3163 3163 3163 3163 3164 3165 3167 3169 3171 3173 3175 3177 3178 3180 3184 3184 3186 3190 3194 3197 3200 3203 3207 3209 3210 3211 3212 3212 3210 3211 3210 3209 3209 3207 3206 3206 3204 3203 3202 3201 3200 3200 3199 3199
3162 3161 3161 3161 3161 3161 3163 3164 3167 3169 3171 3173 3175 3176 3178 3182 3182 3185 3188 3192 3196 3199 3203 3205 3208 3210 3211 3212 3211 3211 3211 3210 3209 3208 3207 3205 3205 3203 3202 3201 3200 3199 3198 3199 3199
3160 3159 3159 3159 3159 3160 3161 3162 3164 3166 3169 3171 3173 3175 3176 3177 3180 3184 3187 3191 3195 3198 3200 3204 3207 3209 3210 3211 3211 3211 3210 3209 3208 3206 3205 3205 3204 3202 3201 3200 3199 3198 3197 3198 3199
3158 3157 3157 3157 3158 3158 3159 3160 3162 3164 3167 3169 3172 3174 3177 3177 3180 3183 3187 3191 3194 3197 3200 3203 3207 3209 3211 3211 3210 3210 3209 3209 3208 3205 3204 3204 3203 3200 3199 3199 3199 3197 3197 3197 3197
3156 3155 3155 3156 3156 3157 3158 3159 3160 3162 3165 3167 3170 3175 3174 3177 3178 3182 3186 3189 3193 3196 3200 3204 3208 3209 3210 3209 3207 3209 3208 3208 3207 3207 3204 3204 3202 3201 3198 3197 3197 3197 3196 3195 3195
3154 3153 3154 3154 3155 3156 3157 3159 3163 3164 3163 3166 3168 3170 3171 3174 3179 3182 3185 3189 3193 3197 3201 3203 3207 3206 3207 3208 3208 3209 3208 3207 3206 3205 3204 3202 3199 3197 3196 3196 3196 3196 3195 3195 3194
3152 3152 3152 3153 3154 3155 3156 3158 3160 3162 3164 3165 3167 3169 3171 3174 3179 3181 3184 3190 3193 3197 3200 3203 3204 3205 3206 3206 3208 3208 3207 3205 3205 3204 3203 3201 3198 3195 3194 3194 3195 3195 3194 3193 3192
3150 3150 3151 3152 3153 3155 3156 3158 3160 3161 3164 3166 3168 3169 3172 3176 3181 3182 3184 3189 3193 3197 3199 3201 3202 3202 3205 3206 3207 3205 3205 3204 3205 3203 3201 3198 3194 3194 3193 3193 3193 3193 3193 3191 3190
3148 3148 3149 3151 3155 3154 3157 3158 3160 3161 3166 3168 3169 3171 3173 3175 3180 3180 3184 3190 3192 3196 3198 3200 3200 3202 3204 3205 3206 3202 3204 3205 3204 3203 3199 3198 3192 3194 3193 3192 3192 3192 3191 3190 3189
3146 3146 3147 3150 3152 3154 3157 3158 3160 3162 3160 3169 3168 3169 3172 3176 3177 3178 3181 3188 3192 3194 3197 3199 3199 3201 3203 3204 3204 3203 3203 3204 3203 3200 3198 3197 3194 3192 3192 3193 3193 3191 3190 3189 3188
3144 3144 3145 3148 3151 3153 3155 3158 3160 3165 3161 3165 3167 3169 3172 3175 3177 3177 3181 3186 3189 3192 3194 3196 3196 3199 3201 3202 3202 3202 3203 3202 3201 3198 3191 3194 3195 3187 3192 3193 3192 3190 3189 3188 3187
3142 3142 3144 3146 3150 3152 3155 3158 3163 3159 3162 3164 3166 3168 3173 3175 3177 3178 3182 3185 3188 3191 3192 3195 3196 3197 3198 3200 3200 3201 3199 3193 3192 3188 3185 3192 3194 3190 3192 3191 3189 3189 3188 3188 3186
3139 3140 3142 3144 3148 3151 3154 3159 3161 3159 3161 3162 3165 3168 3172 3174 3177 3179 3181 3184 3186 3188 3187 3191 3192 3194 3195 3197 3196 3197 3196 3191 3191 3183 3182 3190 3188 3190 3190 3190 3189 3188 3187 3187 3186
3138 3138 3140 3143 3146 3150 3155 3159 3156 3159 3161 3162 3164 3167 3170 3172 3176 3178 3180 3182 3184 3186 3187 3188 3188 3190 3191 3193 3195 3194 3195 3193 3189 3190 3187 3183 3188 3188 3189 3189 3188 3187 3187 3186 3186
3136 3137 3138 3141 3145 3149 3153 3156 3156 3156 3158 3161 3163 3165 3167 3170 3173 3175 3177 3178 3181 3184 3186 3188 3188 3190 3188 3190 3193 3193 3192 3191 3189 3185 3183 3179 3186 3185 3188 3188 3187 3186 3186 3186 3186
3135 3136 3137 3140 3144 3148 3152 3155 3154 3155 3156 3160 3162 3163 3164 3167 3170 3172 3175 3176 3179 3182 3185 3187 3187 3190 3190 3190 3189 3192 3190 3190 3188 3189 3181 3178 3180 3185 3187 3186 3186 3185 3185 3185 3185
3135 3138 3135 3139 3145 3147 3150 3151 3151 3154 3155 3157 3158 3162 3163 3166 3168 3170 3172 3174 3177 3179 3182 3185 3185 3184 3186 3188 3188 3190 3189 3189 3186 3186 3186 3187 3185 3183 3185 3185 3184 3183 3183 3183 3183
3134 3135 3135 3138 3144 3145 3147 3148 3150 3152 3155 3156 3157 3158 3161 3164 3168 3170 3172 3173 3175 3177 3180 3182 3183 3183 3186 3189 3187 3188 3189 3188 3188 3187 3185 3186 3183 3181 3182 3182 3182 3182 3182 3182 3182
3135 3137 3136 3137 3139 3143 3146 3148 3150 3151 3151 3152 3154 3155 3158 3162 3165 3168 3170 3170 3173 3174 3177 3180 3179 3178 3178 3183 3184 3186 3187 3187 3187 3185 3182 3180 3182 3182 3180 3178 3178 3179 3180 3180 3180
3133 3135 3135 3137 3139 3141 3142 3145 3148 3150 3149 3150 3152 3153 3157 3160 3163 3165 3168 3168 3171 3173 3174 3179 3178 3181 3180 3181 3183 3185 3185 3185 3184 3184 3183 3180 3181 3180 3178 3177 3176 3177 3178 3179 3179
3131 3132 3133 3134 3136 3138 3140 3143 3145 3147 3147 3149 3149 3151 3155 3159 3161 3163 3165 3167 3169 3170 3173 3175 3178 3179 3181 3181 3182 3182 3182 3181 3180 3180 3180 3180 3179 3177 3176 3175 3174 3176 3177 3177 3177
3128 3130 3132 3133 3135 3137 3140 3141 3143 3143 3145 3146 3149 3151 3152 3153 3155 3158 3161 3162 3165 3170 3172 3175 3175 3177 3176 3178 3180 3179 3175 3176 3176 3176 3177 3177 3175 3174 3174 3173 3173 3174 3175 3175 3175